When you browse on this site, cookies collect data to enhance your experience and personalize the content and advertising you see.
Visit our Privacy Policy to learn more. By continuing to use the site, you agree to this use of cookies and data.
  • In Netherlands
  • List of Countries
  • For 7 days
  • Water Temperature
  • Satellite Maps
  • Weather Map
  • Weather Widgets
  • user-avatar
    Login

    Hourly Weather Santiago de Compostela

    Today, 16 January, Wednesday

    Time Temperature Precipitation Wind Pressure Humidity
    00:00 +6°C° 0 mm 1 mps 741 mmHg 95%
    01:00 +7°C° 0 mm 1 mps 741 mmHg 95%
    02:00 +7°C° 0 mm 1 mps 741 mmHg 95%
    03:00 +8°C° 0 mm 1 mps 741 mmHg 95%
    04:00 +8°C° 0 mm 1 mps 741 mmHg 95%
    05:00 +9°C° 0 mm 1 mps 741 mmHg 95%
    06:00 +9°C° 0.1 mm 1 mps 741 mmHg 95%
    07:00 +9°C° 0.1 mm 1 mps 741 mmHg 96%
    08:00 +9°C° 0.1 mm 1 mps 741 mmHg 97%
    09:00 +10°C° 0.1 mm 1 mps 741 mmHg 96%
    10:00 +10°C° 0.1 mm 1 mps 741 mmHg 95%
    11:00 +11°C° 0.1 mm 1 mps 741 mmHg 94%
    12:00 +11°C° 0.1 mm 1 mps 741 mmHg 90%
    13:00 +12°C° 0.1 mm 1 mps 741 mmHg 85%
    14:00 +12°C° 0.1 mm 1 mps 741 mmHg 81%
    15:00 +11°C° 0.1 mm 1 mps 741 mmHg 86%
    16:00 +10°C° 0.1 mm 1 mps 741 mmHg 92%
    17:00 +8°C° 0.1 mm 0 mps 741 mmHg 97%
    18:00 +8°C° 0.4 mm 0 mps 742 mmHg 97%
    19:00 +8°C° 0.4 mm 0 mps 742 mmHg 97%
    20:00 +8°C° 0.4 mm 0 mps 743 mmHg 97%
    21:00 +9°C° 0.2 mm 1 mps 743 mmHg 97%
    22:00 +8°C° 0.2 mm 1 mps 743 mmHg 96%
    23:00 +8°C° 0.2 mm 1 mps 744 mmHg 95%

    Tomorrow, 17 January, Thursday

    Time Temperature Precipitation Wind Pressure Humidity
    00:00 +7°C° 0 mm 1 mps 744 mmHg 96%
    01:00 +6°C° 0 mm 1 mps 744 mmHg 96%
    02:00 +5°C° 0 mm 1 mps 744 mmHg 97%
    03:00 +5°C° 0 mm 1 mps 744 mmHg 97%
    04:00 +4°C° 0 mm 1 mps 744 mmHg 97%
    05:00 +3°C° 0 mm 0 mps 744 mmHg 97%
    06:00 +3°C° 0 mm 0 mps 744 mmHg 96%
    07:00 +3°C° 0 mm 0 mps 745 mmHg 95%
    08:00 +4°C° 0 mm 0 mps 745 mmHg 95%
    09:00 +7°C° 0 mm 1 mps 745 mmHg 88%
    10:00 +9°C° 0 mm 1 mps 745 mmHg 81%
    11:00 +10°C° 0 mm 1 mps 746 mmHg 74%
    12:00 +10°C° 0 mm 2 mps 745 mmHg 71%
    13:00 +10°C° 0 mm 2 mps 745 mmHg 68%
    14:00 +10°C° 0 mm 2 mps 745 mmHg 65%
    15:00 +9°C° 0 mm 2 mps 745 mmHg 74%
    16:00 +8°C° 0 mm 1 mps 745 mmHg 83%
    17:00 +6°C° 0 mm 1 mps 745 mmHg 91%
    18:00 +6°C° 0 mm 1 mps 746 mmHg 93%
    19:00 +5°C° 0 mm 1 mps 746 mmHg 95%
    20:00 +3°C° 0 mm 0 mps 746 mmHg 96%
    21:00 +3°C° 0 mm 0 mps 745 mmHg 96%
    22:00 +3°C° 0 mm 0 mps 745 mmHg 96%
    23:00 +3°C° 0 mm 0 mps 745 mmHg 96%

    Day after tomorrow, 18 January, Friday

    Time Temperature Precipitation Wind Pressure Humidity
    00:00 +3°C° 0 mm 0 mps 745 mmHg 95%
    01:00 +3°C° 0 mm 0 mps 745 mmHg 94%
    02:00 +3°C° 0 mm 0 mps 745 mmHg 93%
    03:00 +3°C° 0 mm 0 mps 744 mmHg 91%
    04:00 +3°C° 0 mm 0 mps 744 mmHg 90%
    05:00 +4°C° 0 mm 0 mps 744 mmHg 88%
    06:00 +5°C° 0.5 mm 1 mps 744 mmHg 90%
    07:00 +5°C° 0.5 mm 1 mps 743 mmHg 91%
    08:00 +5°C° 0.5 mm 1 mps 743 mmHg 93%
    09:00 +6°C° 0.8 mm 1 mps 743 mmHg 94%
    10:00 +6°C° 0.8 mm 1 mps 743 mmHg 94%
    11:00 +6°C° 0.8 mm 2 mps 743 mmHg 95%
    12:00 +6°C° 0.1 mm 2 mps 742 mmHg 94%
    13:00 +7°C° 0.1 mm 2 mps 742 mmHg 93%
    14:00 +8°C° 0.1 mm 2 mps 741 mmHg 92%
    15:00 +8°C° 0.1 mm 2 mps 741 mmHg 93%
    16:00 +7°C° 0.1 mm 2 mps 741 mmHg 94%
    17:00 +8°C° 0.1 mm 1 mps 741 mmHg 96%
    18:00 +8°C° 0.1 mm 1 mps 742 mmHg 96%
    19:00 +8°C° 0.1 mm 1 mps 742 mmHg 97%
    20:00 +8°C° 0.1 mm 1 mps 742 mmHg 98%
    21:00 +8°C° 0.1 mm 1 mps 742 mmHg 98%
    22:00 +8°C° 0.1 mm 1 mps 742 mmHg 98%
    23:00 +8°C° 0.1 mm 1 mps 742 mmHg 99%

    19 January, Saturday

    Time Temperature Precipitation Wind Pressure Humidity
    00:00 +8°C° 0 mm 1 mps 742 mmHg 99%
    01:00 +8°C° 0 mm 1 mps 741 mmHg 98%
    02:00 +8°C° 0 mm 1 mps 741 mmHg 98%
    03:00 +8°C° 0.9 mm 1 mps 740 mmHg 98%
    04:00 +7°C° 0.9 mm 2 mps 739 mmHg 98%
    05:00 +7°C° 0.9 mm 2 mps 739 mmHg 97%
    06:00 +8°C° 1.1 mm 2 mps 738 mmHg 97%
    07:00 +9°C° 1.1 mm 3 mps 738 mmHg 98%
    08:00 +10°C° 1.1 mm 3 mps 737 mmHg 98%
    09:00 +10°C° 3.6 mm 3 mps 736 mmHg 97%
    10:00 +11°C° 3.6 mm 3 mps 735 mmHg 97%
    11:00 +11°C° 3.6 mm 3 mps 735 mmHg 97%
    12:00 +11°C° 2.2 mm 3 mps 734 mmHg 97%
    13:00 +13°C° 2.2 mm 2 mps 734 mmHg 97%
    14:00 +13°C° 2.2 mm 2 mps 734 mmHg 97%
    15:00 +12°C° 0.2 mm 2 mps 734 mmHg 97%
    16:00 +10°C° 0.2 mm 2 mps 735 mmHg 97%
    17:00 +10°C° 0.2 mm 2 mps 736 mmHg 97%
    18:00 +9°C° 0 mm 2 mps 737 mmHg 96%
    19:00 +8°C° 0 mm 2 mps 738 mmHg 96%
    20:00 +9°C° 0 mm 1 mps 739 mmHg 96%
    21:00 +9°C° 0.1 mm 1 mps 739 mmHg 96%
    22:00 +8°C° 0.1 mm 1 mps 740 mmHg 96%
    23:00 +8°C° 0.1 mm 1 mps 741 mmHg 96%

    20 January, Sunday

    Time Temperature Precipitation Wind Pressure Humidity
    00:00 +7°C° 0 mm 1 mps 741 mmHg 97%
    01:00 +7°C° 0 mm 1 mps 741 mmHg 97%
    02:00 +5°C° 0 mm 0 mps 741 mmHg 98%
    03:00 +5°C° 0 mm 0 mps 742 mmHg 98%
    04:00 +5°C° 0 mm 0 mps 742 mmHg 98%
    05:00 +5°C° 0 mm 0 mps 742 mmHg 98%
    06:00 +6°C° 0.1 mm 0 mps 743 mmHg 98%
    07:00 +6°C° 0.1 mm 0 mps 744 mmHg 97%
    08:00 +7°C° 0.1 mm 0 mps 744 mmHg 97%
    09:00 +9°C° 0.2 mm 1 mps 744 mmHg 93%
    10:00 +10°C° 0.2 mm 1 mps 745 mmHg 90%
    11:00 +10°C° 0.2 mm 2 mps 745 mmHg 87%
    12:00 +10°C° 0.2 mm 2 mps 745 mmHg 85%
    13:00 +10°C° 0.2 mm 2 mps 745 mmHg 84%
    14:00 +10°C° 0.2 mm 2 mps 745 mmHg 83%
    15:00 +9°C° 0.1 mm 2 mps 745 mmHg 88%
    16:00 +9°C° 0.1 mm 1 mps 746 mmHg 92%
    17:00 +8°C° 0.1 mm 1 mps 746 mmHg 97%
    18:00 +7°C° 0.1 mm 1 mps 746 mmHg 98%
    19:00 +7°C° 0.1 mm 1 mps 747 mmHg 98%
    20:00 +6°C° 0.1 mm 0 mps 747 mmHg 98%
    21:00 +6°C° 0.1 mm 0 mps 748 mmHg 98%
    22:00 +6°C° 0.1 mm 0 mps 748 mmHg 98%
    23:00 +6°C° 0.1 mm 0 mps 748 mmHg 99%

    21 January, Monday

    Time Temperature Precipitation Wind Pressure Humidity
    00:00 +6°C° 0 mm 0 mps 748 mmHg 99%
    01:00 +5°C° 0 mm 0 mps 748 mmHg 99%
    02:00 +6°C° 0 mm 1 mps 748 mmHg 99%
    03:00 +6°C° 0 mm 1 mps 748 mmHg 99%
    04:00 +6°C° 0 mm 1 mps 748 mmHg 99%
    05:00 +6°C° 0 mm 1 mps 748 mmHg 99%
    06:00 +6°C° 0 mm 1 mps 749 mmHg 98%
    07:00 +6°C° 0 mm 1 mps 749 mmHg 98%
    08:00 +7°C° 0 mm 1 mps 749 mmHg 97%
    09:00 +7°C° 0.1 mm 2 mps 750 mmHg 92%
    10:00 +8°C° 0.1 mm 2 mps 750 mmHg 86%
    11:00 +9°C° 0.1 mm 3 mps 750 mmHg 81%
    12:00 +10°C° 0.1 mm 3 mps 750 mmHg 77%
    13:00 +10°C° 0.1 mm 3 mps 750 mmHg 74%
    14:00 +10°C° 0.1 mm 3 mps 749 mmHg 71%
    15:00 +9°C° 0 mm 2 mps 750 mmHg 77%
    16:00 +7°C° 0 mm 2 mps 750 mmHg 83%
    17:00 +7°C° 0 mm 1 mps 750 mmHg 89%
    18:00 +6°C° 0 mm 1 mps 750 mmHg 92%
    19:00 +6°C° 0 mm 1 mps 751 mmHg 94%
    20:00 +5°C° 0 mm 1 mps 751 mmHg 97%
    21:00 +5°C° 0 mm 1 mps 751 mmHg 97%
    22:00 +5°C° 0 mm 1 mps 751 mmHg 97%
    23:00 +5°C° 0 mm 1 mps 751 mmHg 97%
    Show more